Location: Cahas Mountain Overlook
(37.0833°N, 80.1000°W)
Time: 04:22:31
(UTC-05:00)

Courier 1B - Visible Passes

Search period start: 05 December 2023 00:00
Search period end: 15 December 2023 00:00
Orbit: 962 x 1208 km, 28.3° (Epoch: 04 December)

Date Brightness Start Highest point End Pass type
(mag) Time Alt. Az. Time Alt. Az. Time Alt. Az.
06 Dec 10.5 06:45:56 10° S 06:47:57 11° SSE 06:49:56 10° SE visible
08 Dec 10.1 06:49:02 10° SSW 06:53:53 19° SSE 06:58:34 10° ESE visible
09 Dec 10.2 05:56:12 10° S 06:00:12 15° SSE 06:04:06 10° ESE visible
10 Dec 10.3 05:04:09 10° S 05:06:31 12° SSE 05:08:52 10° SE visible
11 Dec 9.7 06:00:26 10° SSW 06:06:09 24° SSE 06:11:37 10° ESE visible
12 Dec 9.8 05:07:16 10° SSW 05:12:25 20° SSE 05:17:24 10° ESE visible
13 Dec 10.0 04:15:37 12° S 04:18:41 16° SSE 04:22:49 10° ESE visible
13 Dec 9.2 06:05:35 10° SW 06:12:09 32° SSE 06:18:23 10° ESE visible
14 Dec 10.2 03:25:47 11° SE 03:25:47 11° SE 03:27:25 10° SE visible
14 Dec 9.3 05:12:43 12° SW 05:18:21 28° SSE 05:24:26 10° ESE visible
